User: anonymous   Login
Location: Kuffner-Sternwarte
(48.2130°N, 16.2960°E)
Time: 12:27:05
(UTC+01:00)
Language:

COROT - Orbit

View from above orbital plane
View from above orbital plane
View from above satellite
View from above satellite

Ground track
Ground track

The orbit data is extracted from the following two-line orbital elements,

1 29678U 06063A   17327.61767244 +.00000221 +00000-0 +47896-4 0  9997
2 29678 090.0341 015.8339 0199739 294.9058 063.1502 14.44119365563071
Epoch (UTC): 23 November 2017 14:49:26
Eccentricity: 0.0199739
inclination: 90.0341°
perigee height: 602 km
apogee height: 887 km
right ascension of ascending node: 15.8339°
argument of perigee: 294.9058°
revolutions per day: 14.44119365
mean anomaly at epoch: 63.1502°
orbit number at epoch: 56307

The dashed part of the orbit path shows where the satellite is in the earth's shadow,  

DLR